SBCFSBPS

Guest
Details From SBCF - Tancredo Neves
To SBPS - Porto Seguro
Flight Number -
Tags Generated
Created
Modified
Stats Distance 339 nm / 628 km
Max Altitude 0 ft / 0 m
Waypoints 3
Social Downloads 4
Likes 0
Share VATSIM

Download

Looking for another format? Having issues loading an existing format? Contact us
Advertisement - Login to hide

Notes

Generated

Route

SBCF SGR SBPS

ID Type Via Altitude Latitude Longitude Leg Dist Tot Dist Heading (true) Name
O SBCF APT - 0 ft / 0 m -19.62356˚ -43.97828˚ - 0 nm - -
SGR NDB - 0 ft / 0 m -16.44167˚ -39.08250˚ 338 nm 338 nm 56° / 55° PORTO SEGURO NDB
O SBPS APT - 0 ft / 0 m -16.44108˚ -39.08989˚ 0 nm 339 nm 275° / 275° -

Altitude Profile

Advertisement - Login to hide

Weather


0- 5 10 15 20 25 30 35+ Temperature / ° C

Clouds and Precipitation
Forecast for 2018-05-22 12:00 UTC. Updated 4 hours ago

Ground ~20,000 ft ~40,000 ft Winds

SBCF

Details ICAO SBCF (CNF)
Name Tancredo Neves
Region Brazil
Timezone America/Sao_Paulo (UTC-3.0)
Stats Elevation 2,715 ft / 828 m (AMSL)
Location -19.633758° -43.968854°
Runways 1
Magnetic Variation 22.844° W

METAR

SBCF 221400Z 01006KT CAVOK 21/12 Q1022

Decode

TAF

TAF SBCF 220800Z 2212/2312 09005KT CAVOK TX23/2218Z TN07/2310Z BECMG 2218/2220 06005KT BECMG 2300/2302 34005KT BECMG 2306/2308 15005KT 7000 FEW005 RMK PDE

Decode

Departure Runways

ID Width Length Bearing (true) Bearing (mag) Surface Threshold Offset Overrun Length
16 148 ft / 45 m 9,872 ft / 3,009 m 138.97° 161.81° Asphalt 0 ft / 0 m 203 ft / 62 m
34 148 ft / 45 m 9,872 ft / 3,009 m 318.96° 341.80° Asphalt 0 ft / 0 m 203 ft / 62 m

SBPS

Details ICAO SBPS (BPS)
Name Porto Seguro
Region Brazil
Timezone America/Bahia (UTC-3.0)
Stats Elevation 168 ft / 51 m (AMSL)
Location -16.438625° -39.080917°
Runways 1
Magnetic Variation 23.888° W

METAR

SBPS 221420Z 16005KT 100V270 3000 RA SCT010 BKN020 BKN050 24/22 Q1018

Decode

TAF

TAF SBPS 221000Z 2212/2312 16008KT 9000SCT015 TX28/2216Z TN22/2307Z TEMPO 2212/2215 6000 SHRA SCT010 SCT015 BECMG 2300/2301 35004KT RMK PCN

Decode

Destination Runways

ID Width Length Bearing (true) Bearing (mag) Surface Threshold Offset Overrun Length
10 148 ft / 45 m 6,532 ft / 1,991 m 74.06° 97.95° Asphalt 0 ft / 0 m 195 ft / 59 m
28 148 ft / 45 m 6,532 ft / 1,991 m 254.06° 277.95° Asphalt 0 ft / 0 m 0 ft / 0 m

Popular Alternatives